OneWeb SL0095

operational
NORAD ID: 45436 Int'l Des: 2020-020 Owner: ONEWEB Country: UK Constellation: oneweb
LEOCIRCULARPOLARONEWEB_TYPE

Über OneWeb SL0095

Beschreibung wird geladen...

Live-Position

3D-Globus wird geladen...

Nächste Überflüge

Höhenverlauf

Altitude vs Time

uPlot chart will show altitude changes over time

Zweizeiliger Elementsatz

1 45436U 20020N 25303.77499458 -.00000060 00000-0 -20399-3 0 9996
2 45436 87.8839 66.7496 0001656 72.8327 287.2982 13.11420688272601
Epoch: 30. Okt. 2025 • Age: 11 hours

Aktueller Status

Höhe 1242.9 km
Geschwindigkeit 7.23 km/s
Subsatellitenpunkt -63.39°S, 56.28°W
Startdatum 21. März 2020
Alter 5.6 years
Typ internet

Technische Details

Klassifizierung Payload
Masse 148.00 kg
Trockenmasse 140.00 kg
Gesamtmasse 148.00 kg
Länge 1.30 m
Durchmesser 1.00 m
Spannweite 5.00 m
Form Trapezoid+2 pan
Hersteller ONEWUS
Bus-Typ ARROW
Phasenstatus In Orbit
Besitzer/Staat ONEWEB/UK

Große Konstellationen

Loading constellations...